OH7GGX-14 Weather Reports


time (UTC)temp
F
wind
direction
speed
knots
gust
knots
rain 1hr
in
rain 24hr
in
rain mn
in
humidity
%
barometer
mb
20260506213129 30 334 0.0 0.0 0.00 0.00 0.00 88 1015.7
20260506212129 30 338 0.0 0.0 0.00 0.00 0.00 86 1015.7
20260506211129 30 334 0.0 0.0 0.00 0.00 0.00 86 1015.7
20260506210129 30 334 0.0 0.0 0.00 0.00 0.00 84 1015.6
20260506205129 30 334 0.0 0.0 0.00 0.00 0.00 82 1015.6
20260506204129 31 334 0.0 0.0 0.00 0.00 0.00 81 1015.5
20260506203129 31 334 0.0 0.0 0.00 0.00 0.00 80 1015.5
20260506202129 31 334 0.0 0.0 0.00 0.00 0.00 78 1015.5
20260506201129 32 223 0.0 0.0 0.00 0.00 0.00 76 1015.5
20260506200129 32 336 0.0 0.0 0.00 0.00 0.00 75 1015.5
20260506195129 32 334 0.0 0.0 0.00 0.00 0.00 74 1015.4
20260506194130 33 334 0.0 0.0 0.00 0.00 0.00 73 1015.3
20260506193130 33 334 0.0 0.9 0.00 0.00 0.00 72 1015.3
20260506192130 34 292 0.0 0.0 0.00 0.00 0.00 71 1015.2
20260506191130 35 21 0.0 0.0 0.00 0.00 0.00 69 1015.0
20260506190130 36 21 0.0 0.9 0.00 0.00 0.00 67 1015.0
20260506185130 37 39 0.0 0.9 0.00 0.00 0.00 65 1014.9
20260506184130 38 178 0.0 0.0 0.00 0.00 0.00 63 1014.8
20260506183130 39 178 0.9 0.9 0.00 0.00 0.00 60 1014.7
20260506182130 40 178 0.0 0.9 0.00 0.00 0.00 58 1014.6
20260506181130 41 323 0.0 0.9 0.00 0.00 0.00 55 1014.4
20260506180130 43 178 0.0 0.0 0.00 0.00 0.00 52 1014.3
20260506175130 44 178 0.0 0.9 0.00 0.00 0.00 49 1014.1
20260506174130 46 223 0.0 0.9 0.00 0.00 0.00 46 1014.1
20260506173130 47 178 0.0 0.9 0.00 0.00 0.00 44 1014.0
20260506172130 47 201 0.9 0.9 0.00 0.00 0.00 43 1013.8
20260506171130 47 278 1.7 2.6 0.00 0.00 0.00 42 1013.8
20260506170130 48 178 0.9 6.1 0.00 0.00 0.00 42 1013.7
20260506165130 48 240 0.9 7.0 0.00 0.00 0.00 41 1013.6
20260506164130 48 191 2.6 4.3 0.00 0.00 0.00 40 1013.5
20260506163130 49 196 2.6 5.2 0.00 0.00 0.00 40 1013.4
20260506162130 49 202 2.6 10.4 0.00 0.00 0.00 40 1013.3
20260506161130 49 272 2.6 7.0 0.00 0.00 0.00 39 1013.2
20260506160130 49 240 1.7 5.2 0.00 0.00 0.00 40 1013.2
20260506155130 48 258 0.0 2.6 0.00 0.00 0.00 41 1013.1
20260506154130 48 213 0.9 4.3 0.00 0.00 0.00 41 1013.0
20260506153130 48 215 0.9 3.5 0.00 0.00 0.00 40 1013.0
20260506152130 49 213 1.7 5.2 0.00 0.00 0.00 40 1012.9
20260506151130 49 216 3.5 5.2 0.00 0.00 0.00 38 1012.9
20260506150130 49 233 1.7 10.4 0.00 0.00 0.00 36 1012.8
20260506145130 50 354 2.6 7.8 0.00 0.00 0.00 37 1012.7
20260506144130 50 251 3.5 10.4 0.00 0.00 0.00 36 1012.7
20260506143130 50 265 5.2 7.0 0.00 0.00 0.00 37 1012.6
20260506142130 50 241 2.6 8.7 0.00 0.00 0.00 39 1012.5
20260506141130 50 21 3.5 3.5 0.00 0.00 0.00 39 1012.3
20260506140130 50 237 2.6 8.7 0.00 0.00 0.00 37 1012.2
20260506135130 50 345 0.0 5.2 0.00 0.00 0.00 40 1012.2
20260506134130 50 324 2.6 6.1 0.00 0.00 0.00 40 1012.2
20260506133130 50 15 0.9 9.6 0.00 0.00 0.00 40 1012.1
20260506132130 51 250 5.2 9.6 0.00 0.00 0.00 40 1011.9
20260506131130 51 226 4.3 8.7 0.00 0.00 0.00 41 1011.9
20260506130130 50 247 5.2 10.4 0.00 0.00 0.00 41 1012.0
20260506125130 50 270 4.3 8.7 0.00 0.00 0.00 40 1011.6
20260506124130 50 233 5.2 9.6 0.00 0.00 0.00 39 1011.6
20260506123130 50 243 7.0 10.4 0.00 0.00 0.00 38 1011.5
20260506122130 50 16 1.7 7.0 0.00 0.00 0.00 40 1011.4
20260506121130 50 229 3.5 10.4 0.00 0.00 0.00 38 1011.4
20260506120130 51 230 3.5 8.7 0.00 0.00 0.00 40 1011.4
20260506115130 51 258 5.2 10.4 0.00 0.00 0.00 39 1011.3
20260506114130 51 260 3.5 4.3 0.00 0.00 0.00 41 1011.1
20260506113130 50 240 4.3 12.2 0.00 0.00 0.00 42 1011.1
20260506112130 49 206 5.2 10.4 0.00 0.00 0.00 43 1010.9
20260506111130 49 232 2.6 7.8 0.00 0.00 0.00 43 1011.0
20260506110130 50 232 6.1 7.0 0.00 0.00 0.00 41 1011.0
20260506105130 51 316 1.7 7.8 0.00 0.00 0.00 40 1010.8
20260506104131 51 15 0.0 11.3 0.00 0.00 0.00 42 1010.6
20260506103130 50 209 4.3 7.8 0.00 0.00 0.00 44 1010.5
20260506102130 49 206 2.6 9.6 0.00 0.00 0.00 45 1010.5
20260506101130 49 232 1.7 7.8 0.00 0.00 0.00 45 1010.5
20260506100130 50 258 6.1 8.7 0.00 0.00 0.00 41 1010.4
20260506095131 50 305 3.5 14.8 0.00 0.00 0.00 44 1010.2
20260506094130 50 236 7.0 12.2 0.00 0.00 0.00 45 1010.1
20260506093131 49 219 5.2 7.8 0.00 0.08 0.00 47 1010.0
20260506092131 48 226 7.0 7.8 0.00 0.08 0.00 47 1009.9
20260506091131 48 246 4.3 12.2 0.00 0.08 0.00 48 1009.9
20260506090131 47 240 7.0 9.6 0.00 0.08 0.00 53 1009.8
20260506085131 47 246 3.5 4.3 0.00 0.08 0.00 52 1009.9
20260506084131 47 274 7.0 7.0 0.00 0.08 0.00 51 1009.7
20260506083131 47 227 3.5 10.4 0.00 0.08 0.00 51 1009.6
20260506082131 47 217 2.6 7.8 0.00 0.08 0.00 51 1009.5
20260506081131 47 233 5.2 7.0 0.00 0.08 0.00 50 1009.5
20260506080131 47 286 1.7 7.0 0.00 0.08 0.00 53 1009.4
20260506073131 46 199 1.7 7.8 0.00 0.08 0.00 56 1009.1
20260506072131 47 234 2.6 7.8 0.00 0.08 0.00 56 1009.0
20260506071131 47 258 1.7 8.7 0.00 0.08 0.00 57 1008.9
20260506070131 47 213 3.5 9.6 0.00 0.08 0.00 57 1008.7
20260506062131 45 282 1.7 5.2 0.00 0.08 0.00 71 1008.4
20260506061131 44 12 2.6 7.8 0.00 0.08 0.00 76 1008.4
20260506060131 43 29 0.0 6.1 0.00 0.08 0.00 80 1008.2
20260506051131 39 19 2.6 4.3 0.00 0.08 0.00 99 1008.1
20260506050131 38 324 0.0 4.3 0.00 0.08 0.00 99 1008.2
20260506045131 37 180 3.5 4.3 0.00 0.08 0.00 99 1008.0
20260506044131 37 267 2.6 3.5 0.00 0.08 0.00 99 1007.9
20260506043131 36 234 0.9 2.6 0.00 0.08 0.00 99 1007.8
20260506042131 35 198 1.7 3.5 0.00 0.08 0.00 99 1007.8
20260506041131 34 202 1.7 3.5 0.00 0.08 0.00 99 1007.7
20260506040131 33 191 1.7 4.3 0.00 0.08 0.00 99 1007.7
20260506035131 32 223 0.9 2.6 0.00 0.08 0.00 99 1007.8
20260506034131 31 209 0.9 2.6 0.00 0.08 0.00 99 1007.6
20260506033131 31 217 0.9 1.7 0.00 0.08 0.00 99 1007.5
20260506032131 30 223 0.9 1.7 0.00 0.08 0.00 99 1007.6
20260506031131 30 219 0.0 1.7 0.00 0.08 0.00 99 1007.4
20260506030131 29 205 0.9 1.7 0.00 0.08 0.00 99 1007.5
20260506025131 29 178 0.9 1.7 0.00 0.08 0.00 99 1007.3
20260506024133 28 185 0.9 1.7 0.00 0.08 0.00 99 1007.2
20260506023131 28 257 0.9 2.6 0.00 0.08 0.00 99 1007.1
20260506022131 28 205 0.9 1.7 0.00 0.08 0.00 99 1007.0
20260506021131 28 178 0.9 1.7 0.00 0.08 0.00 99 1006.9
20260506020131 28 216 0.9 1.7 0.00 0.08 0.00 99 1006.9
20260506015131 28 267 0.0 1.7 0.00 0.08 0.00 99 1006.8
20260506014131 28 9 0.0 0.9 0.00 0.08 0.00 99 1006.9
20260506013131 28 268 0.0 0.0 0.00 0.08 0.00 99 1006.8
20260506012131 28 21 0.0 0.9 0.00 0.08 0.00 99 1006.6
20260506011131 29 21 0.0 0.0 0.00 0.08 0.00 99 1006.6
20260506010131 29 178 2.6 2.6 0.00 0.08 0.00 99 1006.5
20260506005132 29 202 0.9 2.6 0.00 0.08 0.00 99 1006.3
20260506004132 29 187 0.9 1.7 0.00 0.08 0.00 99 1006.2
20260506003132 29 178 0.0 0.9 0.00 0.08 0.00 99 1006.1
20260506002132 29 178 0.0 1.7 0.00 0.08 0.00 99 1006.0
20260506001132 30 178 0.9 1.7 0.00 0.08 0.00 99 1006.0
20260506000132 30 178 0.0 1.7 0.00 0.08 0.00 99 1005.8
20260505235132 30 178 0.0 0.9 0.00 0.08 0.00 99 1005.8
20260505234132 30 178 0.0 0.9 0.00 0.08 0.00 99 1005.8
20260505233132 30 178 0.0 0.9 0.00 0.08 0.00 99 1005.9
20260505232132 30 178 0.0 0.9 0.00 0.08 0.00 99 1005.9
20260505231132 30 178 0.0 0.9 0.00 0.08 0.00 99 1005.7
20260505230132 30 178 0.9 1.7 0.00 0.08 0.00 99 1005.7
20260505225132 30 178 0.9 1.7 0.00 0.08 0.00 99 1005.7
20260505224132 30 178 0.9 1.7 0.00 0.08 0.00 99 1005.6
20260505223132 30 21 0.9 1.7 0.00 0.08 0.00 99 1005.7
20260505222132 31 21 0.9 1.7 0.00 0.08 0.00 99 1005.5
20260505221132 31 178 0.9 0.9 0.00 0.08 0.00 99 1005.5
20260505220132 31 18 0.0 0.9 0.00 0.08 0.00 99 1005.5
20260505215132 31 21 0.0 1.7 0.00 0.08 0.08 99 1005.5
20260505214132 32 21 0.9 0.9 0.00 0.08 0.08 99 1005.5